星链-36618(STARLINK-36618)

导读

STARLINK-36618是美国太空探索技术公司(SpaceX)星链互联网星座项目中的卫星,于2026年2月16日成功发射,星链星座旨在为全球用户提供低延迟、高速率的卫星宽带互联网服务,该卫星入轨后将参与组网,进一步提升星座覆盖范围与服务能力。

Basic Information
目录编号:
67847
目录名称:
STARLINK-36618
国际标识:
2026-033AC
轨道中心:
EARTH
卫星名称:
星链-36618
卫星全名:
星链-36618(STARLINK-36618)
卫星状态:
在轨 (已飞行200 天)
发射日期:
2026-02-16 UTC
国别 :
美国 (US)
星等 :
--
Orbit Information
数据来源 国际轨道数据
星历时间: 2026-09-03T20:08:51+0800
18小时前
查看轨道信息
半长轴: 6861.172km
偏心率: 0.0001447
轨道倾角: 43.003°
近地点辐角 263.617°
升交点赤经 328.227°
平近点角 96.452°
近地点: 482.042km
远地点: 484.028km
周期: 94.266分钟
每日圈数: 15.27585
Detailed Information
固有亮度:
5
最大亮度:
2.5
卫星平台:
Starlink V1.0
覆盖范围:
全球
运营商:
太空探索技术公司
运营商所在国:
美国
制造商(研发单位):
太空探索技术公司
制造商所在国:
美国
使用方式:
暂无
Satellite Introduction
Starlink 计划是 SpaceX 推出的全球卫星互联网项目,通过发射低轨道卫星,为全球尤其是偏远地区提供高速、低延迟的互联网服务。自 2019 年起,Starlink 已部署数千颗卫星,旨在缩小全球数字鸿沟,推动互联网普及。该项目还为军事、航空等行业提供通信支持,带来广泛经济效益。
2D Orbit Map
3D Orbit Map
Orbit Altitude Analysis Chart
Orbit Inclination Analysis Chart
Orbit Comprehensive Analysis Chart
View Comprehensive Chart
Conjunction Data List
Event ID Objects TCA Miss Dist (km) Collision Risk Probability Collision Risk Index (CRI) Action
CDM_260903-203306-657306-784721
2026-09-03T
20:33:04+0000
0.220 km
中距离
5.799417E-4 高风险 0.9
CDM_260905-092506-657306-784721
2026-09-05T
09:25:37+0000
0.518 km
远距离
1.271807E-4 高风险 0.77
CDM_260905-012005-978706-784721
2026-09-05T
01:20:29+0000
0.606 km
远距离
5.444719E-5 中风险 0.7
CDM_260903-220706-657306-784721
2026-09-03T
22:07:13+0000
0.814 km
远距离
3.420092E-5 中风险 0.66
CDM_260905-005305-903006-784721
2026-09-05T
00:53:29+0000
0.879 km
远距离
3.100829E-5 中风险 0.65
CDM_260905-075106-657306-784721
2026-09-05T
07:51:28+0000
0.849 km
远距离
2.971045E-5 中风险 0.64
CDM_260903-185806-657306-784721
2026-09-03T
18:58:55+0000
1.035 km
极远距离
1.515549E-5 中风险 0.59
CDM_260905-105906-657306-784721
2026-09-05T
10:59:46+0000
1.061 km
极远距离
1.388828E-5 中风险 0.58
CDM_260903-100805-655406-784721
2026-09-03T
10:08:15+0000
0.887 km
远距离
1.23544E-5 中风险 0.57
CDM_260905-061706-657306-784721
2026-09-05T
06:17:19+0000
1.582 km
极远距离
3.641212E-6 低风险 0.46